• In Belarus
  • List of Countries
  • For 7 days
  • Water Temperature
  • Satellite Maps
  • Weather Map
  • Weather Widgets
  • user-avatar
    Login

    Hourly Weather Ondjiwa

    Today, 22 February, Thursday

    Time Temperature Precipitation Wind Pressure Humidity
    00:00 +27°C° 0 mm 2 mps 664 mmHg 50%
    01:00 +26°C° 0 mm 2 mps 664 mmHg 53%
    02:00 +26°C° 0 mm 2 mps 664 mmHg 55%
    03:00 +25°C° 0 mm 2 mps 664 mmHg 58%
    04:00 +24°C° 0 mm 2 mps 664 mmHg 60%
    05:00 +24°C° 0 mm 2 mps 664 mmHg 61%
    06:00 +24°C° 0 mm 2 mps 664 mmHg 61%
    07:00 +24°C° 0 mm 3 mps 665 mmHg 61%
    08:00 +27°C° 0 mm 2 mps 665 mmHg 54%
    09:00 +29°C° 0 mm 2 mps 666 mmHg 47%
    10:00 +31°C° 0 mm 2 mps 666 mmHg 40%
    11:00 +32°C° 0 mm 2 mps 666 mmHg 37%
    12:00 +34°C° 0 mm 2 mps 665 mmHg 34%
    13:00 +36°C° 0 mm 2 mps 665 mmHg 31%
    14:00 +35°C° 0 mm 2 mps 664 mmHg 33%
    15:00 +34°C° 0 mm 2 mps 664 mmHg 35%
    16:00 +32°C° 0 mm 2 mps 663 mmHg 37%
    17:00 +31°C° 0.1 mm 2 mps 663 mmHg 40%
    18:00 +30°C° 0.1 mm 2 mps 663 mmHg 43%
    19:00 +29°C° 0.1 mm 2 mps 663 mmHg 46%
    20:00 +27°C° 1.1 mm 3 mps 663 mmHg 53%
    21:00 +26°C° 1.1 mm 4 mps 663 mmHg 60%
    22:00 +23°C° 1.1 mm 5 mps 664 mmHg 67%
    23:00 +23°C° 0.4 mm 5 mps 664 mmHg 68%

    Tomorrow, 23 February, Friday

    Time Temperature Precipitation Wind Pressure Humidity
    00:00 +23°C° 0.4 mm 4 mps 664 mmHg 68%
    01:00 +24°C° 0.4 mm 3 mps 664 mmHg 69%
    02:00 +22°C° 0.2 mm 3 mps 663 mmHg 71%
    03:00 +22°C° 0.2 mm 3 mps 663 mmHg 73%
    04:00 +21°C° 0.2 mm 3 mps 663 mmHg 76%
    05:00 +21°C° 0 mm 3 mps 663 mmHg 75%
    06:00 +22°C° 0 mm 3 mps 664 mmHg 75%
    07:00 +22°C° 0 mm 3 mps 664 mmHg 74%
    08:00 +25°C° 0 mm 3 mps 665 mmHg 64%
    09:00 +26°C° 0 mm 4 mps 665 mmHg 55%
    10:00 +28°C° 0 mm 4 mps 666 mmHg 45%
    11:00 +30°C° 0 mm 3 mps 665 mmHg 39%
    12:00 +33°C° 0 mm 3 mps 665 mmHg 34%
    13:00 +34°C° 0 mm 3 mps 664 mmHg 28%
    14:00 +35°C° 0 mm 3 mps 664 mmHg 27%
    15:00 +35°C° 0 mm 3 mps 663 mmHg 26%
    16:00 +36°C° 0 mm 3 mps 663 mmHg 24%
    17:00 +34°C° 0 mm 2 mps 663 mmHg 28%
    18:00 +31°C° 0 mm 2 mps 663 mmHg 32%
    19:00 +29°C° 0 mm 1 mps 663 mmHg 36%
    20:00 +28°C° 0 mm 3 mps 663 mmHg 41%
    21:00 +28°C° 0 mm 4 mps 664 mmHg 46%
    22:00 +27°C° 0 mm 5 mps 665 mmHg 51%
    23:00 +26°C° 0 mm 5 mps 664 mmHg 51%

    Day after tomorrow, 24 February, Saturday

    Time Temperature Precipitation Wind Pressure Humidity
    00:00 +26°C° 0 mm 5 mps 664 mmHg 51%
    01:00 +25°C° 0 mm 4 mps 664 mmHg 51%
    02:00 +23°C° 0 mm 4 mps 664 mmHg 53%
    03:00 +22°C° 0 mm 3 mps 664 mmHg 55%
    04:00 +22°C° 0 mm 3 mps 663 mmHg 56%
    05:00 +23°C° 0 mm 2 mps 664 mmHg 57%
    06:00 +23°C° 0 mm 2 mps 664 mmHg 58%
    07:00 +23°C° 0 mm 2 mps 665 mmHg 59%
    08:00 +25°C° 0 mm 3 mps 666 mmHg 50%
    09:00 +27°C° 0 mm 3 mps 666 mmHg 42%
    10:00 +30°C° 0 mm 4 mps 667 mmHg 33%
    11:00 +32°C° 0 mm 4 mps 666 mmHg 29%
    12:00 +34°C° 0 mm 4 mps 666 mmHg 26%
    13:00 +35°C° 0 mm 5 mps 665 mmHg 22%
    14:00 +35°C° 0 mm 5 mps 665 mmHg 22%
    15:00 +35°C° 0 mm 5 mps 664 mmHg 21%
    16:00 +35°C° 0 mm 5 mps 663 mmHg 21%
    17:00 +34°C° 0 mm 4 mps 664 mmHg 24%
    18:00 +31°C° 0 mm 3 mps 664 mmHg 26%
    19:00 +29°C° 0 mm 3 mps 664 mmHg 29%
    20:00 +28°C° 0 mm 3 mps 664 mmHg 29%
    21:00 +28°C° 0 mm 4 mps 665 mmHg 30%
    22:00 +28°C° 0 mm 4 mps 666 mmHg 30%
    23:00 +27°C° 0 mm 4 mps 666 mmHg 35%

    25 February, Sunday

    Time Temperature Precipitation Wind Pressure Humidity
    00:00 +26°C° 0 mm 5 mps 665 mmHg 40%
    01:00 +25°C° 0 mm 5 mps 665 mmHg 46%
    02:00 +23°C° 0 mm 4 mps 665 mmHg 47%
    03:00 +22°C° 0 mm 3 mps 665 mmHg 49%
    04:00 +22°C° 0 mm 3 mps 665 mmHg 51%
    05:00 +22°C° 0 mm 3 mps 665 mmHg 52%
    06:00 +22°C° 0 mm 3 mps 666 mmHg 53%
    07:00 +22°C° 0 mm 3 mps 666 mmHg 54%
    08:00 +25°C° 0 mm 3 mps 667 mmHg 45%
    09:00 +27°C° 0 mm 4 mps 667 mmHg 36%
    10:00 +29°C° 0 mm 4 mps 668 mmHg 28%
    11:00 +32°C° 0 mm 4 mps 668 mmHg 24%
    12:00 +34°C° 0 mm 4 mps 667 mmHg 21%
    13:00 +35°C° 0 mm 5 mps 667 mmHg 17%
    14:00 +35°C° 0 mm 5 mps 666 mmHg 17%
    15:00 +35°C° 0 mm 5 mps 665 mmHg 17%
    16:00 +36°C° 0 mm 5 mps 665 mmHg 17%
    17:00 +34°C° 0 mm 4 mps 665 mmHg 20%
    18:00 +31°C° 0 mm 3 mps 665 mmHg 22%
    19:00 +28°C° 0 mm 2 mps 665 mmHg 25%
    20:00 +28°C° 0 mm 3 mps 665 mmHg 27%
    21:00 +27°C° 0 mm 3 mps 666 mmHg 28%
    22:00 +27°C° 0 mm 4 mps 666 mmHg 30%
    23:00 +26°C° 0 mm 4 mps 666 mmHg 33%

    26 February, Monday

    Time Temperature Precipitation Wind Pressure Humidity
    00:00 +25°C° 0 mm 3 mps 666 mmHg 37%
    01:00 +22°C° 0 mm 3 mps 665 mmHg 41%
    02:00 +22°C° 0 mm 3 mps 665 mmHg 44%
    03:00 +21°C° 0 mm 2 mps 665 mmHg 48%
    04:00 +20°C° 0 mm 2 mps 665 mmHg 51%
    05:00 +20°C° 0 mm 2 mps 665 mmHg 51%
    06:00 +21°C° 0 mm 2 mps 666 mmHg 50%
    07:00 +21°C° 0 mm 2 mps 666 mmHg 50%
    08:00 +24°C° 0 mm 2 mps 667 mmHg 41%
    09:00 +27°C° 0 mm 3 mps 667 mmHg 33%
    10:00 +29°C° 0 mm 3 mps 668 mmHg 24%
    11:00 +30°C° 0 mm 3 mps 667 mmHg 22%
    12:00 +31°C° 0 mm 3 mps 667 mmHg 20%
    13:00 +33°C° 0 mm 3 mps 666 mmHg 19%
    14:00 +33°C° 0 mm 3 mps 666 mmHg 19%
    15:00 +33°C° 0 mm 3 mps 665 mmHg 20%
    16:00 +31°C° 0 mm 2 mps 665 mmHg 21%
    17:00 +30°C° 0 mm 2 mps 665 mmHg 23%
    18:00 +29°C° 0 mm 2 mps 665 mmHg 24%
    19:00 +27°C° 0 mm 1 mps 665 mmHg 25%
    20:00 +27°C° 0 mm 2 mps 665 mmHg 25%
    21:00 +27°C° 0 mm 2 mps 666 mmHg 24%
    22:00 +27°C° 0 mm 2 mps 666 mmHg 24%
    23:00 +26°C° 0 mm 2 mps 666 mmHg 29%

    27 February, Tuesday

    Time Temperature Precipitation Wind Pressure Humidity
    00:00 +25°C° 0 mm 2 mps 666 mmHg 33%
    01:00 +24°C° 0 mm 2 mps 666 mmHg 37%
    02:00 +23°C° 0 mm 2 mps 666 mmHg 38%
    03:00 +21°C° 0 mm 2 mps 666 mmHg 39%
    04:00 +20°C° 0 mm 2 mps 665 mmHg 40%
    05:00 +21°C° 0 mm 2 mps 666 mmHg 40%
    06:00 +21°C° 0 mm 2 mps 666 mmHg 40%
    07:00 +21°C° 0 mm 2 mps 667 mmHg 40%
    08:00 +25°C° 0 mm 2 mps 667 mmHg 33%
    09:00 +28°C° 0 mm 3 mps 668 mmHg 27%
    10:00 +30°C° 0 mm 3 mps 668 mmHg 20%
    11:00 +33°C° 0 mm 3 mps 668 mmHg 19%
    12:00 +34°C° 0 mm 3 mps 667 mmHg 17%
    13:00 +35°C° 0 mm 4 mps 666 mmHg 16%
    14:00 +35°C° 0 mm 4 mps 666 mmHg 16%
    15:00 +36°C° 0 mm 4 mps 665 mmHg 16%
    16:00 +36°C° 0 mm 4 mps 665 mmHg 16%
    17:00 +34°C° 0 mm 3 mps 665 mmHg 19%
    18:00 +30°C° 0 mm 2 mps 664 mmHg 22%
    19:00 +28°C° 0 mm 1 mps 664 mmHg 25%
    20:00 +27°C° 0 mm 1 mps 665 mmHg 26%
    21:00 +27°C° 0 mm 1 mps 665 mmHg 27%
    22:00 +26°C° 0 mm 2 mps 666 mmHg 27%
    23:00 +25°C° 0 mm 2 mps 665 mmHg 30%
    Show more